Meteo Giornale » Osservazioni meteo Stati Uniti (USA) » Baltimore-Martin

ore: 15:46 - Osservazioni Meteo Baltimore-Martin
Lat. 39° 20' N Lon. 76° 25' W Alt. 7 metri s.l.m.

nuvoloso

35 °C

Nuvoloso

Temp. 24 Ore

23 °C

35 °C

Ovest/Nord-Ovest

13 Km/h

Dew point 20 °C

Umidità 41 %

Visibilità  10 Km

Il sole sorge alle ore 06:34

Il sole tramonta alle ore 19:36

Data e Ora Cielo e Fenomeni T °C DP °C Um. % Pres. hPa Vis. km Vento km/h
Oggi h: 15:46 nuvoloso Nuvoloso 35 20 41 1014 10 O/NO 13
Oggi h: 14:45 nuvoloso Nuvoloso 34 20 43 1015 10 N 0
Oggi h: 13:49 sereno Sereno 33 21 49 1015 10 O 7.4
Oggi h: 12:45 molto_nuvoloso Molto Nuvoloso 32 20 49 1016 10 O/NO 13
Oggi h: 11:45 sereno Sereno 32 20 49 1016 10 O 14.8
Oggi h: 10:46 nuvoloso Nuvoloso 31 21 55 1017 10 O/NO 9.3
Oggi h: 09:45 molto_nuvoloso Molto Nuvoloso 29 22 66 1016 10 N 0
Oggi h: 08:45 nuvoloso Nuvoloso 28 23 74 1017 10 N 5.5
Oggi h: 07:45 foschia Foschia 26 23 83 1017 10 N 0
Oggi h: 06:45 foschia Foschia 23 22 94 1017 10 N 0
Oggi h: 05:45 nuvoloso Nuvoloso 24 23 94 1017 10 N 0
Oggi h: 05:15 nuvoloso Nuvoloso 24 23 94 1017 10 N 0
Oggi h: 04:55 molto_nuvoloso Molto Nuvoloso 25 23 88 1017 10 N 0
Oggi h: 04:35 molto_nuvoloso Molto Nuvoloso 24 23 94 1017 10 N 0
Oggi h: 04:15 molto_nuvoloso Molto Nuvoloso 25 23 88 1017 10 N 0
Oggi h: 03:55 nuvoloso Nuvoloso 25 23 88 1017 10 N 0
Oggi h: 03:35 molto_nuvoloso Molto Nuvoloso 26 23 83 1017 10 N 0
Oggi h: 03:15 molto_nuvoloso Molto Nuvoloso 25 23 88 1017 10 N 0
Oggi h: 02:55 nuvoloso Nuvoloso 25 23 88 1017 10 N 0
Oggi h: 02:35 nuvoloso Nuvoloso 25 23 88 1018 10 N 0
Oggi h: 02:15 nuvoloso Nuvoloso 25 23 88 1018 10 N 0
Oggi h: 01:55 nuvoloso Nuvoloso 26 23 83 1018 10 N 0
Oggi h: 01:35 nuvoloso Nuvoloso 26 23 83 1018 10 N 0
Oggi h: 01:15 sereno Sereno 26 23 83 1018 10 N 0
Oggi h: 00:55 nuvoloso Nuvoloso 25 23 88 1018 10 N 0
Oggi h: 00:35 coperto Coperto 26 23 83 1018 10 N 0
Oggi h: 00:15 coperto Coperto 25 23 88 1018 10 N 0
Ieri h: 23:55 molto_nuvoloso Molto Nuvoloso 26 23 83 1018 10 N 0
Ieri h: 23:35 nuvoloso Nuvoloso 26 23 83 1018 10 N 0
Ieri h: 23:15 nuvoloso Nuvoloso 26 23 83 1018 10 N 0
Ieri h: 22:55 molto_nuvoloso Molto Nuvoloso 26 23 83 1019 10 N 5.5
Ieri h: 22:35 molto_nuvoloso Molto Nuvoloso 26 23 83 1019 10 N 0
Ieri h: 22:15 nuvoloso Nuvoloso 27 23 78 1018 10 S 7.4
Ieri h: 21:45 nuvoloso Nuvoloso 26 22 78 1018 10 S 11.1
Ieri h: 20:43 nuvoloso Nuvoloso 27 22 74 1018 10 N 0
Ieri h: 19:45 nuvoloso Nuvoloso 27 21 69 1018 10 N 5.5
Ieri h: 18:45 molto_nuvoloso Molto Nuvoloso 27 21 69 1019 10 E/SE 9.3
Ieri h: 16:45 molto_nuvoloso Molto Nuvoloso 28 20 61 1019 10 N 0